[Iaude] MPEC N122: 2024 MB3 [a=1.57,e=0.23,i=20.1,H=20.4]
    mpec at cfa.harvard.edu 
    mpec at cfa.harvard.edu
       
    Tue Jul  9 15:01:15 EDT 2024
    
    
  
M.P.E.C. 2024-N122                                 Issued 2024 July 9, 18:59 UT
     The Minor Planet Electronic Circulars contain information on unusual
         minor planets, routine data on comets and natural satellites,
         and occasional editorial announcements.  They are published
    on behalf of Division F of the International Astronomical Union by the
          Minor Planet Center, Smithsonian Astrophysical Observatory,
                          Cambridge, MA 02138, U.S.A.
			  
             Prepared using the Tamkin Foundation Computer Network
                              MPC at CFA.HARVARD.EDU
            URL https://www.minorplanetcenter.net/    ISSN 1523-6714
                                    2024 MB3                                    
     The following astrometry was found among the isolated tracklets and linked
by R. Weryk.
Observations:
     K24M03B  C2020 05 21.55675419 53 53.977-29 32 30.42         22.46GVEN122F51
     K24M03B  C2020 05 21.56640119 53 53.958-29 32 25.79         23.36GVEN122F51
     K24M03B  C2020 05 21.57607519 53 53.948-29 32 21.20         22.74GVEN122F51
     K24M03B  C2020 06 15.45265019 38 16.054-25 15 33.06         22.04GVEN122F51
     K24M03B  C2020 06 15.46279219 38 15.220-25 15 25.42         22.06GVEN122F51
     K24M03B  C2020 06 15.47293019 38 14.366-25 15 17.42         22.16GVEN122F51
     K24M03B  C2022 05 31.52859920 29 36.843-22 19 09.04         22.32GVEN122F52
     K24M03B  C2022 05 31.53814520 29 36.848-22 19 01.48         23.02GVEN122F52
     K24M03B  C2022 05 31.54769920 29 36.840-22 18 54.02         21.99GVEN122F52
     K24M03B  C2022 05 31.55721720 29 36.869-22 18 45.76         21.70GVEN122F52
     K24M03B  C2022 06 21.46164420 20 01.682-17 05 00.38         22.24GVEN122F52
     K24M03B  C2022 06 21.47377120 20 00.880-17 04 48.03         22.42GVEN122F52
     K24M03B  C2022 06 21.48599720 20 00.059-17 04 35.35         21.59GVEN122F52
     K24M03B  C2022 06 21.49813520 19 59.280-17 04 22.84         22.20GVEN122F52
     K24M03B  C2022 07 04.48500920 02 09.559-13 04 35.58         21.30GVEN122F52
     K24M03B  C2022 07 04.51948820 02 05.856-13 03 54.61         21.32GVEN122F52
     K24M03B  C2024 06 07.58128521 06 26.949-14 10 11.07         22.34GVEN122F52
     K24M03B  C2024 06 07.58915221 06 27.037-14 10 02.24         22.54GVEN122F52
     K24M03B  C2024 06 11.57440621 07 07.118-12 53 55.56         22.30GVEN122F52
     K24M03B  C2024 06 11.58103421 07 07.122-12 53 47.76         21.97GVEN122F52
     K24M03B  C2024 06 11.58762321 07 07.112-12 53 40.24         23.18GVEN122F52
     K24M03B  C2024 06 11.59422521 07 07.133-12 53 32.72         22.69GVEN122F52
     K24M03B* C2024 06 18.55061621 06 35.169-10 32 06.84         22.26wXEN122F51
     K24M03B  C2024 06 18.56230421 06 34.918-10 31 53.01         22.30wXEN122F51
     K24M03B  C2024 06 18.57395021 06 34.703-10 31 37.83         22.15wXEN122F51
     K24M03B  C2024 06 28.56985221 01 37.341-06 48 38.64         21.80wXEN122F51
     K24M03B  C2024 06 28.58803221 01 36.438-06 48 12.97         21.85wXEN122F51
     K24M03B  C2024 06 28.59710921 01 35.986-06 47 59.97         21.86wXEN122F51
     K24M03B  C2024 06 29.47520721 00 55.123-06 27 19.98         22.12GVEN122F51
     K24M03B  C2024 06 29.49647121 00 53.979-06 26 49.71         21.61GVEN122F51
     K24M03B  C2024 07 03.45259620 57 15.458-04 51 46.82         21.56wXEN122F51
     K24M03B  C2024 07 03.46323820 57 14.736-04 51 31.21         21.71wXEN122F51
     K24M03B  C2024 07 03.48492220 57 13.311-04 50 59.54         21.54wXEN122F51
     K24M03B  C2024 07 09.46422220 50 03.609-02 22 25.21         21.26wXEN122F51
     K24M03B  C2024 07 09.48407120 50 01.870-02 21 55.33         21.45wXEN122F51
     K24M03B  C2024 07 09.49394720 50 01.030-02 21 40.20         21.51wXEN122F51
Observer details:
F51 Pan-STARRS 1, Haleakala.  Observers J. Herman, T. Lowe, P. Minguez, A.
    Schultz, I. Smith.  Measurers K. Chambers, T. de Boer, J. Fairlamb, H.
    Gao, M. Huber, C.-C. Lin, E. Magnier, Y. Ramanjooloo, R. Wainscoat, R.
    Weryk.  1.8-m Ritchey-Chretien + CCD.
F52 Pan-STARRS 2, Haleakala.  Observers J. Herman, T. Lowe, P. Minguez, A.
    Schultz, I. Smith.  Measurers K. Chambers, T. de Boer, J. Fairlamb, H.
    Gao, M. Huber, C.-C. Lin, E. Magnier, Y. Ramanjooloo, R. Wainscoat, R.
    Weryk.  1.8-m Ritchey-Chretien + CCD.
Orbital elements:
2024 MB3                                                 Earth MOID = 0.2820 AU
Epoch 2024 Mar. 31.0 TT = JDT 2460400.5                 Veres                   
M 224.53297              (2000.0)            P               Q                  
n   0.50289116     Peri.  128.74420     +0.59696767     -0.72772961             
a   1.5661020      Node   281.18527     +0.58682432     +0.68311459             
e   0.2325812      Incl.   20.13515     +0.54705286     +0.06135201             
P   1.96           H   20.47          G   0.15           U   1                  
Residuals in seconds of arc
200521 F51  0.2+  0.1+    220621 F52  0.1-  0.2+    240618 F51  0.0   0.2+
200521 F51  0.2+  0.0     220621 F52  0.2+  0.3+    240628 F51  0.2-  0.1-
200521 F51  0.2+  0.2-    220704 F52  0.3+  0.0     240628 F51  0.0   0.1-
200615 F51  0.2-  0.1+    220704 F52  0.0   0.3+    240628 F51  0.1+  0.1+
200615 F51  0.0   0.1-    240607 F52  0.0   0.1-    240629 F51  0.1+  0.1-
200615 F51  0.1-  0.1+    240607 F52  0.1-  0.1-    240629 F51  0.1-  0.1+
220531 F52  0.1-  0.3-    240611 F52  0.1+  0.0     240703 F51  0.1+  0.1-
220531 F52  0.2-  0.1-    240611 F52  0.1+  0.0     240703 F51  0.2-  0.0
220531 F52  0.3-  0.1-    240611 F52  0.2-  0.2-    240703 F51  0.2+  0.1-
220531 F52  0.0   0.7+    240611 F52  0.1+  0.4-    240709 F51  0.1+  0.1+
220621 F52  0.2+  0.0     240618 F51 (0.4+  0.8+)   240709 F51  0.1-  0.1-
220621 F52  0.1+  0.0     240618 F51  0.0   0.2-    240709 F51  0.1+  0.1+
Ephemeris:
2024 MB3                 a,e,i = 1.57, 0.23, 20                  q = 1.2019
Date    TT    R. A. (2000) Decl.     Delta      r    Elong.  Phase     V
2024 06 09    21 06 45.8 -13 43 25   0.9232  1.7059   123.2    29.8    22.8
...
2024 06 24    21 04 32.1 -08 33 23   0.7750  1.6638   136.1    25.1    22.2
...
2024 07 02    20 58 41.5 -05 26 57   0.7087  1.6403   143.2    21.8    21.9
...
2024 07 08    20 51 59.5 -02 59 10   0.6662  1.6221   148.4    19.2    21.6
2024 07 09    20 50 41.0 -02 34 03   0.6598  1.6191   149.2    18.7    21.6
2024 07 10    20 49 19.3 -02 08 50   0.6535  1.6160   150.0    18.3    21.5
...
2024 07 16    20 40 05.8 +00 23 37   0.6205  1.5974   154.0    16.2    21.3
...
2024 07 24    20 25 24.1 +03 43 53   0.5883  1.5722   156.2    15.1    21.1
...
2024 08 08    19 54 33.7 +09 07 09   0.5651  1.5238   148.2    20.5    21.2
M. P. C. Staff               (C) Copyright 2024 MPC           M.P.E.C. 2024-N122
    
    
More information about the Iaude
mailing list